[Date Prev][Date Next][Thread Prev][Thread Next] - [Date Index][Thread Index][Author Index]
2 Line ISS Keps 1-30
- Subject: [sarex] 2 Line ISS Keps 1-30
- From: "Dave Larsen PhD" <doc@xxxxxxxxxxx>
- Date: Fri, 30 Jan 2004 02:50:36 -0800
ISS
1 25544U 98067A 04030.22394632 .00010897 00000-0 10701-3 0 1010
2 25544 51.6299 313.0916 0007999 109.0013 54.2358 15.66611593296518
----
Via the sarex mailing list at AMSAT.ORG courtesy of AMSAT-NA.
To unsubscribe, send "unsubscribe sarex" to Majordomo@amsat.org
AMSAT Home